Wind_Speed
43 43 41 38 38 39 39 39 38 39 41 41 40 38 36 37 37 35 35 35 35 35 35 33 32 32 32 32 32 32 32 32 32 32 32 32 32 32 32 32 32 32 32 32
45 43 38 39 40 41 40 40 39 39 41 42 41 39 36 37 37 37 36 36 37 36 36 35 34 33 33 33 33 32 32 32 33 33 33 33 33 33 33 33 33 33 33 34
44 40 39 40 41 41 40 39 38 39 41 43 42 39 36 36 38 39 39 38 38 37 37 36 35 34 34 34 34 33 33 33 33 33 33 34 34 34 34 34 34 34 34 35
45 44 42 42 41 40 40 38 38 39 41 42 42 41 34 35 36 38 39 39 38 38 38 37 36 35 35 34 34 34 34 33 33 34 34 34 34 34 34 34 34 35 35 36
46 44 42 42 40 39 39 39 39 40 40 41 40 42 35 33 34 36 38 38 38 38 38 37 36 36 36 35 34 34 33 33 34 34 34 34 34 34 34 34 35 35 36 37
47 45 44 42 41 41 41 40 40 40 40 41 38 40 38 33 33 34 36 37 37 37 36 36 36 36 35 34 34 34 34 34 34 33 33 33 34 34 34 35 35 36 37 38
49 46 44 42 41 40 40 39 40 41 41 42 38 38 37 34 33 33 34 35 36 36 36 35 35 35 35 35 34 35 34 34 33 33 33 34 34 34 35 35 36 37 38 39
47 45 42 40 39 38 38 39 40 41 42 41 39 37 33 32 31 31 32 34 35 35 35 35 35 35 34 34 34 34 34 33 33 33 33 34 34 34 35 36 37 39 39 40
45 44 41 39 38 39 40 39 38 40 42 41 40 36 31 30 31 31 31 31 32 33 34 34 33 33 33 33 33 33 33 33 33 33 33 33 34 34 36 37 38 39 40 42
43 44 41 39 40 40 40 39 39 40 41 41 39 35 30 28 30 31 31 31 31 32 32 32 32 32 33 33 32 32 32 32 32 32 32 33 34 35 37 38 39 40 42 43
44 44 42 41 41 39 39 39 39 40 41 40 39 35 29 28 29 30 30 29 29 30 31 31 31 31 31 31 30 30 31 31 31 32 33 34 35 37 38 39 40 42 43 44
43 44 43 42 40 40 40 39 39 39 39 38 38 36 30 28 29 30 30 30 29 29 30 30 30 30 30 30 30 30 30 31 32 33 34 36 37 38 39 40 42 43 44 44
44 46 45 44 43 41 40 38 37 37 38 39 37 34 29 28 28 30 30 30 30 29 29 30 30 29 29 29 30 30 31 32 33 34 36 37 38 39 40 42 42 43 44 45
45 46 45 43 40 38 37 37 36 37 38 37 34 31 29 28 29 30 30 30 30 29 29 30 30 30 30 30 30 31 33 34 35 36 37 37 38 39 40 41 42 43 45 46
45 45 42 40 40 38 37 36 37 37 36 35 32 31 28 29 30 30 30 30 29 29 29 29 30 30 30 31 32 33 34 35 36 37 37 37 39 39 41 42 43 44 45 47
43 42 40 39 39 38 38 37 36 35 34 33 33 30 27 30 31 30 29 28 28 28 28 29 29 30 30 31 32 33 34 35 36 36 37 38 39 40 41 42 44 45 47 48
41 40 39 39 38 39 40 35 34 33 32 32 31 27 28 30 30 29 29 28 27 27 28 29 29 30 31 32 32 33 34 35 35 36 37 38 40 41 42 44 45 46 48 49
42 41 40 39 39 41 35 32 32 32 31 31 29 28 28 28 29 29 28 27 27 27 28 29 30 31 32 32 32 33 34 35 36 37 38 39 40 42 43 45 46 48 49 50
44 42 42 41 40 39 34 30 30 31 30 30 29 28 28 29 28 27 27 27 27 28 28 29 30 31 32 32 33 34 35 35 37 37 38 39 41 43 44 46 47 48 49 49
44 43 43 41 40 38 33 31 31 32 30 28 29 28 28 29 28 26 27 27 28 28 28 29 30 30 31 32 33 34 35 36 37 38 39 41 42 44 45 46 47 48 49 50
43 43 42 41 40 38 34 32 32 32 28 28 29 28 28 27 26 27 28 28 28 28 28 29 29 30 31 32 34 35 36 37 38 39 40 42 43 44 45 46 47 48 50 51
41 41 41 40 40 36 33 32 31 29 29 29 28 28 27 27 27 27 27 28 28 28 29 29 30 31 32 33 35 35 36 37 39 40 41 42 44 44 45 46 47 49 51 53
42 40 40 38 35 32 31 30 29 30 29 28 28 27 27 27 27 27 27 28 28 29 29 30 31 32 33 34 35 36 37 38 39 41 42 43 43 44 45 47 48 50 53 55
40 40 39 38 35 33 31 30 30 29 29 28 27 28 28 28 28 28 29 29 29 30 30 31 32 33 34 35 35 36 37 39 40 41 41 42 43 45 46 48 50 52 55 57
39 39 38 37 35 34 33 31 30 30 30 29 29 29 29 29 29 29 30 30 30 31 31 32 33 34 34 35 36 37 38 39 40 40 41 43 44 46 48 49 52 54 57 60
39 38 37 36 34 34 32 31 31 31 30 30 30 30 30 30 30 30 30 31 31 32 32 33 34 34 35 36 37 37 38 39 40 41 43 44 46 47 49 52 54 57 60 62
Wind_Direction
235 236 236 238 240 240 241 242 243 245 249 250 250 250 251 255 257 258 259 261 262 263 264 266 267 268 269 270 273 274 276 277 278 279 279 280 281 281 281 281 282 282 283 285
235 236 236 237 238 240 241 243 244 246 250 252 252 251 252 255 259 260 261 262 263 264 266 267 268 269 269 270 272 273 274 276 277 277 278 279 280 281 280 280 281 282 283 285
236 236 236 237 238 240 242 244 246 247 250 253 254 253 253 256 259 261 262 263 264 265 266 267 269 269 269 270 271 272 273 274 275 276 278 279 279 280 280 280 281 282 284 286
233 232 233 235 237 240 243 245 247 249 250 253 256 257 252 256 259 261 263 264 264 265 266 267 268 269 269 270 270 270 272 274 275 276 277 278 279 279 279 280 281 283 285 287
233 234 235 237 239 242 244 245 248 250 252 254 256 261 256 256 258 261 263 263 264 265 266 267 268 268 268 269 269 270 272 273 274 275 275 277 278 279 280 281 282 284 286 288
232 232 233 235 236 239 243 245 248 251 254 256 257 262 262 259 259 259 261 263 265 265 266 266 267 267 268 268 268 270 271 273 274 274 275 276 277 279 280 281 283 285 286 288
231 232 233 234 236 239 242 246 249 252 254 257 258 261 265 264 262 261 261 263 264 265 266 267 267 267 267 267 268 269 270 272 272 273 275 276 277 278 280 281 283 285 287 289
234 235 235 236 238 239 242 245 249 254 257 259 259 261 264 266 265 264 262 262 264 265 265 266 267 267 266 267 268 269 270 270 271 272 274 275 277 279 280 282 284 286 289 291
232 235 235 236 236 237 239 243 248 253 256 259 260 262 263 266 267 266 265 264 264 265 265 265 265 265 265 266 267 268 269 269 270 271 273 275 277 279 281 284 286 288 290 291
231 234 233 233 233 235 238 241 244 249 255 259 261 263 266 266 267 267 267 266 264 264 264 264 264 264 265 266 267 267 268 268 269 271 273 276 278 280 282 285 287 288 290 291
228 231 232 231 232 235 238 241 245 249 254 259 264 265 265 267 267 267 267 267 266 265 265 265 264 264 265 266 266 266 267 268 269 271 274 276 278 280 283 285 287 288 290 292
226 229 231 231 232 234 236 240 244 249 254 258 262 265 266 267 267 266 266 266 266 265 264 264 264 265 265 265 266 266 267 268 270 272 274 277 279 281 283 285 287 289 291 293
224 226 229 230 231 232 235 239 244 249 253 256 259 265 266 265 265 265 265 264 264 264 264 263 263 264 265 266 267 267 268 269 271 273 276 278 280 282 283 286 288 290 292 293
223 227 229 231 235 235 237 239 243 248 251 256 259 264 266 267 265 264 264 263 263 263 262 263 264 264 265 266 268 269 270 271 273 276 278 279 281 283 286 288 290 291 293 294
222 225 227 229 234 236 238 240 243 248 252 255 258 260 263 264 265 265 265 265 265 265 264 264 264 265 267 268 269 271 272 273 275 277 280 281 283 285 287 289 290 292 293 295
222 224 227 230 233 236 238 240 243 246 250 254 257 260 262 262 264 265 266 267 266 266 265 264 264 266 268 270 271 272 274 275 278 280 282 284 286 287 288 290 291 293 294 296
224 226 229 232 234 237 238 239 243 247 250 254 257 260 259 261 264 265 265 266 265 264 264 264 264 266 268 270 271 273 275 277 280 282 284 285 286 288 290 291 293 294 295 296
222 225 229 232 233 237 240 239 242 246 249 253 256 257 259 261 262 263 265 266 265 265 265 266 267 268 269 271 273 275 277 280 281 282 284 285 287 289 291 292 294 295 296 297
221 224 228 231 235 238 239 239 242 246 249 252 255 256 257 259 262 264 265 265 266 266 267 269 270 270 272 273 276 278 280 281 282 283 284 286 288 290 291 293 294 295 296 297
222 225 228 232 236 239 238 239 243 248 250 252 255 256 257 260 263 264 265 266 267 269 270 271 272 273 275 276 278 279 281 282 283 284 285 287 289 291 292 293 294 295 296 298
223 225 229 232 237 240 241 241 245 248 252 251 253 255 257 259 262 263 265 268 269 271 272 273 274 276 277 279 280 281 282 283 283 285 287 289 290 292 293 294 295 296 297 299
225 227 230 233 237 240 241 242 245 249 250 251 253 255 256 258 261 265 267 268 270 271 273 275 276 278 280 281 281 282 283 284 286 287 289 290 291 293 294 295 296 297 299 300
224 228 232 235 238 241 242 244 244 247 250 252 253 255 256 259 262 265 268 270 272 273 274 276 278 280 281 283 283 284 285 286 287 289 290 292 293 294 295 296 298 299 300 301
225 228 231 232 234 237 240 243 245 246 249 252 254 256 257 260 263 267 270 271 273 275 276 279 281 283 284 284 285 286 287 288 289 291 292 293 294 296 297 298 299 301 302 303
226 228 230 232 233 236 239 242 245 247 250 253 256 258 260 262 265 268 270 271 274 277 279 281 283 284 285 285 286 287 288 290 291 292 293 294 296 297 299 300 301 302 303 304
226 227 229 231 233 237 240 243 245 248 251 253 256 259 261 264 267 269 270 272 276 279 281 283 284 284 285 286 287 289 290 291 292 293 295 296 297 299 300 301 302 304 305 306
Height
5771 5776 5781 5786 5789 5791 5793 5795 5798 5800 5800 5802 5804 5808 5810 5809 5810 5812 5813 5812 5813 5813 5812 5813 5813 5813 5812 5811 5810 5809 5809 5808 5807 5806 5804 5803 5802 5800 5799 5797 5795 5794 5792 5790
5762 5768 5775 5776 5778 5781 5784 5787 5791 5792 5792 5793 5796 5799 5802 5802 5802 5804 5804 5804 5804 5805 5805 5805 5805 5805 5804 5804 5803 5802 5801 5800 5799 5798 5797 5796 5795 5793 5791 5790 5788 5786 5785 5783
5754 5763 5765 5767 5770 5773 5776 5780 5783 5784 5784 5784 5786 5791 5795 5795 5794 5795 5795 5796 5796 5796 5796 5796 5797 5796 5796 5796 5795 5794 5793 5793 5792 5790 5789 5788 5787 5785 5784 5782 5781 5779 5777 5775
5743 5750 5754 5757 5761 5765 5769 5772 5773 5774 5776 5777 5778 5780 5788 5787 5787 5786 5786 5787 5787 5787 5788 5788 5788 5788 5787 5787 5787 5786 5785 5785 5784 5783 5782 5780 5779 5778 5777 5775 5773 5771 5769 5767
5735 5741 5746 5750 5755 5757 5760 5762 5764 5766 5767 5768 5770 5770 5778 5780 5779 5778 5778 5778 5778 5779 5779 5779 5779 5779 5779 5778 5778 5778 5777 5776 5776 5775 5774 5772 5771 5770 5769 5767 5765 5763 5761 5758
5725 5731 5736 5741 5746 5748 5751 5754 5755 5756 5758 5760 5764 5762 5766 5770 5771 5770 5769 5769 5769 5769 5770 5770 5770 5770 5770 5770 5770 5769 5769 5768 5767 5766 5765 5765 5764 5762 5761 5759 5757 5755 5752 5750
5715 5721 5726 5732 5736 5740 5743 5746 5748 5748 5749 5752 5754 5755 5758 5760 5761 5761 5761 5760 5760 5761 5761 5761 5761 5762 5761 5761 5761 5760 5760 5760 5759 5758 5757 5756 5755 5754 5752 5750 5748 5746 5743 5741
5707 5713 5719 5725 5729 5733 5735 5738 5740 5741 5742 5743 5744 5746 5751 5751 5751 5751 5752 5752 5752 5752 5752 5753 5753 5753 5753 5752 5752 5752 5752 5751 5751 5750 5749 5748 5747 5746 5744 5742 5739 5737 5734 5731
5700 5706 5712 5717 5721 5724 5726 5728 5732 5732 5732 5733 5735 5739 5743 5743 5742 5742 5742 5743 5743 5743 5744 5744 5744 5744 5744 5744 5744 5744 5743 5743 5742 5742 5741 5740 5738 5737 5735 5733 5730 5728 5725 5721
5692 5697 5702 5706 5710 5713 5717 5720 5722 5722 5723 5724 5727 5730 5735 5735 5734 5733 5734 5734 5734 5735 5735 5735 5735 5735 5735 5735 5735 5735 5735 5735 5734 5734 5733 5731 5730 5728 5726 5724 5721 5718 5715 5711
5681 5686 5691 5696 5700 5705 5709 5711 5713 5715 5716 5717 5718 5724 5726 5726 5726 5725 5725 5725 5726 5726 5726 5726 5727 5727 5727 5727 5727 5727 5727 5726 5726 5725 5724 5723 5721 5719 5717 5714 5711 5708 5704 5701
5671 5676 5681 5687 5692 5696 5699 5702 5705 5707 5708 5710 5711 5716 5717 5718 5717 5717 5717 5717 5717 5718 5718 5718 5718 5719 5719 5719 5719 5719 5718 5718 5717 5717 5715 5714 5712 5710 5707 5704 5701 5697 5694 5690
5661 5666 5670 5675 5682 5686 5689 5693 5696 5699 5700 5700 5702 5709 5708 5709 5708 5708 5709 5709 5709 5710 5710 5710 5710 5711 5711 5711 5711 5711 5710 5710 5709 5708 5706 5705 5702 5700 5697 5694 5691 5687 5683 5679
5652 5656 5662 5669 5674 5679 5682 5686 5688 5689 5690 5693 5696 5699 5700 5699 5699 5700 5700 5700 5701 5702 5702 5702 5703 5703 5703 5703 5703 5702 5702 5701 5700 5699 5697 5695 5692 5689 5687 5683 5680 5676 5672 5668
5641 5647 5654 5660 5664 5669 5673 5676 5679 5680 5683 5685 5688 5689 5692 5690 5690 5691 5691 5692 5693 5694 5694 5694 5694 5694 5695 5694 5694 5694 5693 5692 5690 5689 5687 5685 5682 5679 5676 5673 5669 5665 5661 5657
5634 5641 5646 5651 5655 5659 5662 5666 5669 5672 5675 5677 5678 5681 5683 5681 5681 5682 5683 5684 5684 5685 5685 5686 5686 5686 5686 5686 5685 5684 5683 5682 5681 5679 5677 5674 5672 5669 5666 5662 5658 5654 5650 5645
5628 5634 5639 5643 5647 5649 5652 5659 5662 5665 5667 5669 5670 5675 5673 5673 5673 5674 5675 5676 5676 5677 5677 5677 5678 5678 5678 5677 5676 5675 5674 5673 5671 5669 5667 5664 5661 5658 5655 5651 5647 5643 5638 5633
5619 5625 5629 5634 5638 5639 5650 5652 5654 5656 5659 5661 5663 5664 5665 5665 5666 5666 5667 5668 5668 5669 5669 5669 5669 5669 5669 5668 5667 5666 5665 5663 5661 5659 5657 5654 5651 5647 5644 5640 5636 5631 5626 5621
5609 5615 5620 5625 5628 5633 5640 5645 5647 5648 5651 5653 5654 5656 5657 5657 5658 5659 5659 5660 5660 5660 5661 5661 5660 5660 5660 5659 5658 5657 5655 5653 5651 5649 5646 5643 5640 5636 5632 5628 5624 5619 5614 5609
5601 5607 5612 5617 5620 5625 5634 5637 5638 5641 5643 5646 5646 5647 5648 5649 5650 5652 5651 5652 5652 5652 5652 5652 5652 5651 5651 5650 5648 5647 5645 5643 5641 5638 5635 5632 5629 5625 5621 5617 5612 5607 5602 5596
5592 5597 5602 5608 5612 5617 5624 5628 5630 5634 5638 5637 5638 5639 5640 5641 5643 5644 5643 5644 5644 5644 5644 5643 5643 5642 5642 5640 5639 5637 5635 5633 5630 5627 5624 5621 5617 5613 5609 5604 5600 5595 5589 5584
5585 5590 5595 5599 5604 5613 5617 5619 5623 5626 5627 5628 5630 5632 5633 5634 5634 5635 5635 5635 5636 5635 5635 5635 5634 5633 5632 5631 5629 5627 5625 5622 5619 5616 5613 5610 5606 5602 5597 5592 5587 5582 5576 5570
5577 5584 5589 5595 5602 5606 5608 5611 5614 5616 5618 5620 5622 5624 5625 5626 5626 5627 5627 5627 5627 5627 5627 5626 5625 5624 5622 5620 5619 5616 5614 5611 5608 5605 5602 5598 5594 5589 5584 5580 5574 5568 5562 5556
5570 5575 5580 5586 5592 5596 5599 5602 5605 5608 5610 5612 5614 5616 5617 5618 5618 5619 5619 5619 5619 5618 5618 5617 5616 5614 5612 5610 5608 5606 5603 5600 5597 5594 5590 5586 5582 5577 5572 5567 5561 5555 5548 5541
5562 5567 5571 5577 5583 5587 5590 5594 5597 5599 5602 5604 5606 5607 5608 5609 5610 5610 5610 5610 5610 5609 5608 5607 5606 5604 5602 5600 5598 5595 5592 5589 5586 5582 5578 5574 5569 5564 5559 5554 5547 5541 5534 5525
5554 5560 5565 5571 5576 5579 5583 5586 5588 5590 5593 5595 5596 5598 5599 5600 5601 5601 5601 5601 5601 5600 5599 5597 5596 5594 5592 5589 5587 5584 5581 5578 5574 5570 5566 5561 5557 5551 5546 5540 5534 5526 5519 5510